Location: George Washington National Forest Helicopter Landing Site
(38.6463°N, 79.0851°W)
Time: 04:13:26
(UTC-04:00)

Tiros 1 - Pass Details

Date: 29 August 2019
Orbit: 630 x 664 km, 48.4° (Epoch: 18 September)

Event Time Altitude Azimuth Distance (km) Brightness Sun altitude
Rises 20:46:10 0° 199° (SSW) 2,908 10.5 -11.1°
Reaches altitude 10° 20:48:53 10° 184° (S) 2,000 9.5 -11.6°
Maximum altitude 20:52:25 22° 133° (SE) 1,373 8.3 -12.2°
Enters shadow 20:54:03 18° 104° (ESE) 1,529 8.4 -12.5°
